Flag for Norway Weather past 2 weeks in Lillestrøm, Norway

Now
57 °F

Cool.


Feels Like: 57 °F
Forecast: 48 / 67 °F
Wind: 2 mph from Southwest

Location: Oslo-Blindern

Current Time: Aug 20, 2014 at 8:36:59 PM

Latest Report: Aug 20, 2014 at 7:00 PM


Visibility: N/A

Pressure: 29.47 "Hg

Humidity: 86%

Dew point: 53 °F

Location of LillestrømLocation

Historic Weather in Lillestrøm — Graph

°F

Lillestrøm temperature yesterday

Maximum temperature yesterday: 67 °F (at 3:00 PM)
Minimum temperature yesterday: 52 °F (at 12:00 AM)
Average temperature yesterday: 57 °F

Past Weeks' High & Low Weather Summary

 TemperatureHumidityPressure
High78 °F (Aug 8, 4:00 PM)97% (Aug 17, 11:00 AM)29.96 "Hg (Aug 17, 11:00 AM)
Low49 °F (Aug 20, 4:00 AM)43% (Aug 6, 5:00 PM)29.18 "Hg (Aug 18, 9:00 AM)
Average61 °F77%29.60 "Hg
* Reported Aug 5 7:00 PM — Aug 20 7:00 PM, Lillestrøm, Weather by CustomWeather, © 2014

Note: Actual official high and low records may vary slightly from our data, if they occured in-between our weather recording intervals... More about our weather records

Advertising

Lillestrøm weather history for previous 24 hours

 ConditionsComfort  
Time TempWeatherWind HumidityBarometerVisibility
7:00 PM
Aug 20
57 °FCool.2 mph86%29.47 "HgN/A
6:00 PM56 °FCool.2 mph89%29.47 "HgN/A
5:00 PM59 °FSprinkles. Overcast.2 mph90%29.44 "Hg40 mi
4:00 PM60 °FCool.1 mph79%29.44 "HgN/A
3:00 PM60 °FCool.2 mph78%29.41 "HgN/A
2:00 PM65 °FPartly sunny.1 mph52%29.41 "Hg47 mi
1:00 PM64 °FMild.2 mph61%29.41 "HgN/A
12:00 PM64 °FMild.3 mph59%29.41 "HgN/A
11:00 AM62 °FPartly sunny.1 mph67%29.41 "Hg47 mi
10:00 AM58 °FCool.2 mph76%29.41 "HgN/A
9:00 AM55 °FCool.1 mph83%29.38 "HgN/A
8:00 AM54 °FCool.1 mph90%29.38 "HgN/A
7:00 AM51 °FCool.1 mph94%29.38 "HgN/A
6:00 AM50 °FCool.No wind96%29.35 "HgN/A
5:00 AM50 °FCool.1 mph95%29.35 "HgN/A
4:00 AM49 °FCool.1 mph96%29.35 "HgN/A
3:00 AM49 °FCool.1 mph96%29.35 "HgN/A
2:00 AM51 °FPassing clouds.2 mph93%29.35 "Hg43 mi
1:00 AM52 °FCool.1 mph95%29.32 "HgN/A
12:00 AM54 °FCool.2 mph95%29.32 "HgN/A
11:00 PM
Aug 19
56 °FOvercast.2 mph93%29.32 "Hg43 mi
10:00 PM58 °FCool.1 mph85%29.32 "HgN/A
9:00 PM58 °FCool.2 mph79%29.29 "HgN/A
8:00 PM59 °FOvercast.1 mph75%29.29 "Hg47 mi
Weather by CustomWeather, © 2014

See weather overviewHow to use our weather pages